Temperature
26 25 24 23 22 21 21 21 20 20 20 19 19 19 19 19 19 19 19 19 19 18 18 18 18 18 18 18 18 18 18 18 18 18 18 18 18 18 18 18 18 18 18
26 25 24 23 22 22 21 21 21 21 20 20 20 19 19 19 19 19 19 19 19 18 18 18 18 18 18 18 18 18 18 18 18 18 18 18 18 18 18 18 18 18 18
27 25 24 24 23 22 21 21 21 21 21 20 20 19 19 19 19 19 19 19 18 18 18 18 18 18 18 18 18 18 18 18 18 18 18 18 18 18 19 19 18 18 18
27 26 25 24 23 23 22 21 21 21 21 20 20 19 19 19 19 19 19 19 19 18 18 18 18 18 18 18 18 18 18 18 18 18 18 18 18 18 18 18 18 18 18
28 27 26 25 24 23 22 22 21 21 21 20 20 19 19 19 19 19 19 19 19 19 19 18 18 18 18 18 18 18 18 18 18 18 18 18 18 18 18 18 18 18 18
29 27 26 25 24 24 23 22 22 22 21 21 20 20 20 19 19 19 19 19 19 19 19 18 18 18 18 18 18 18 18 18 18 18 18 18 18 18 18 18 18 18 18
29 28 27 26 25 24 23 22 22 22 21 21 20 20 20 20 19 19 19 19 19 19 19 18 18 18 18 18 18 18 18 18 18 18 18 18 18 18 18 18 18 18 18
30 28 27 26 25 24 24 23 22 22 21 21 20 20 20 19 19 19 19 19 19 19 19 18 18 18 18 18 18 18 18 18 18 18 18 18 18 18 18 18 18 18 18
30 29 27 26 25 25 24 23 22 22 21 21 21 20 20 20 20 19 19 19 19 19 19 18 18 18 18 18 18 18 18 18 18 18 18 18 17 17 18 18 18 17 17
30 29 28 27 26 25 24 23 22 22 21 21 21 20 20 20 20 20 19 19 19 19 19 19 18 18 18 18 18 18 18 18 17 17 17 17 17 17 17 17 17 17 17
30 29 28 27 26 25 24 23 23 22 21 21 21 20 20 20 20 19 19 19 19 19 19 18 18 18 18 18 18 18 17 17 17 17 17 17 17 17 17 17 17 17 17
30 29 28 27 27 26 25 23 23 22 22 21 21 21 20 20 20 19 19 19 19 19 19 19 18 18 18 18 18 17 17 17 17 17 17 17 17 17 17 17 17 17 17
30 29 28 27 27 26 25 24 23 23 22 21 21 21 20 20 20 20 20 19 19 19 19 19 18 18 18 18 17 17 17 17 17 17 17 17 16 17 17 16 16 16 16
29 29 28 27 26 26 25 25 24 23 22 22 21 21 21 20 20 20 20 20 19 19 19 18 18 18 18 18 18 17 17 17 17 17 16 16 16 16 16 16 16 16 16
29 28 28 27 26 25 25 24 24 23 23 22 21 21 21 20 20 20 20 20 19 19 19 18 18 18 18 18 17 17 17 17 17 16 16 16 16 16 16 16 16 16 15
28 28 27 26 25 25 25 24 24 23 23 22 21 21 21 20 20 19 19 19 19 19 19 18 18 18 17 17 17 17 17 17 16 16 16 16 16 16 15 15 15 15 15
28 27 26 26 25 25 24 24 23 23 22 22 21 21 21 20 20 19 19 19 19 19 18 18 18 17 17 17 17 17 17 16 16 16 16 15 15 15 15 15 15 15 15
27 26 26 25 24 24 24 23 23 22 22 21 21 21 20 20 19 19 19 19 18 18 18 18 17 17 17 17 17 17 16 16 16 15 15 15 15 15 15 14 14 14 14
26 25 25 24 24 23 23 23 22 22 21 21 20 20 20 19 19 19 19 18 18 18 18 17 17 17 17 17 17 16 16 15 15 15 15 15 15 14 14 14 14 14 14
24 24 24 24 23 23 23 22 21 21 20 20 20 19 19 19 19 19 18 18 18 17 17 17 16 16 16 16 16 16 16 15 15 14 14 14 14 14 14 14 14 13 13
23 23 23 23 22 22 22 21 21 20 20 20 19 19 19 19 19 18 18 17 17 17 17 16 16 16 16 16 16 16 15 15 14 14 14 14 14 14 14 14 13 13 13
22 22 22 22 21 21 21 20 20 20 19 19 19 19 19 19 18 18 17 17 17 16 16 16 16 15 15 15 15 15 15 15 14 14 13 13 13 13 13 13 13 13 12
21 21 21 20 20 20 19 19 19 19 19 19 18 18 18 18 17 17 17 16 16 16 16 15 15 15 15 15 14 14 14 14 14 13 13 13 13 13 13 13 13 12 12
20 19 19 19 19 19 19 18 18 18 18 18 18 17 17 17 16 16 16 16 16 16 15 15 15 14 14 14 14 14 13 13 13 13 13 13 13 12 12 12 12 12 12
18 18 18 18 17 18 17 17 17 18 17 17 17 17 16 16 16 16 16 16 15 15 15 15 14 14 14 14 14 13 13 13 13 12 12 12 12 12 12 12 12 11 11
18 17 17 17 17 17 17 17 17 17 17 17 16 16 16 16 16 15 15 15 15 15 14 14 14 14 13 13 13 13 13 12 12 12 11 11 11 11 11 11 11 11 11
Wind_Speed
12 12 12 12 11 10 9 8 8 7 6 5 5 4 4 4 4 4 5 6 6 6 5 3 2 3 2 2 3 3 3 3 3 2 2 3 5 6 5 5 4 6 9
14 13 12 12 12 11 9 9 8 8 7 5 4 4 3 3 4 3 4 6 6 5 6 4 3 3 2 3 3 3 2 3 4 3 2 2 3 3 6 5 6 6 6
15 14 13 12 12 12 11 10 9 8 8 7 5 4 3 1 1 2 3 4 6 6 5 5 3 3 3 4 4 4 5 4 4 4 3 2 2 2 2 4 5 5 5
16 15 14 13 13 12 11 9 9 8 8 7 6 6 5 4 4 3 3 3 5 5 6 5 4 4 3 4 5 5 4 4 4 3 4 4 2 2 2 3 4 4 5
16 16 15 13 12 12 12 10 9 8 7 7 6 5 4 4 3 3 3 3 3 4 5 5 4 4 3 4 4 3 5 4 4 3 3 4 4 5 4 3 3 3 3
15 15 14 12 11 11 11 11 10 8 8 7 6 6 5 4 3 3 3 3 3 4 4 5 3 4 4 4 4 4 5 5 5 4 4 4 3 4 4 4 4 3 3
15 15 14 14 11 11 11 11 11 9 9 8 7 6 5 5 5 4 4 4 3 3 3 4 3 3 4 4 5 5 6 6 6 6 5 5 5 4 4 4 4 3 3
15 15 14 13 12 11 11 11 11 10 9 8 7 5 5 4 3 4 3 3 2 2 2 3 3 4 5 5 4 5 6 6 6 8 7 5 5 5 4 4 3 3 3
14 16 16 14 13 12 11 11 11 10 10 9 7 6 5 4 3 3 4 3 2 3 3 3 4 4 4 4 4 4 5 5 5 6 6 5 5 5 5 4 4 3 4
11 13 14 14 13 12 11 11 10 9 9 9 8 7 6 5 4 2 2 2 2 2 2 3 4 4 4 5 4 4 5 5 5 4 5 5 5 4 4 4 3 3 4
13 12 11 13 13 13 13 11 11 10 9 8 7 6 6 6 5 4 3 2 2 2 3 3 4 4 4 4 4 4 4 4 4 4 4 5 4 4 4 3 2 3 3
11 13 12 11 12 13 13 12 11 11 10 8 8 7 6 5 5 5 4 3 3 3 3 3 3 4 3 3 3 4 4 3 3 4 4 4 4 4 4 3 4 3 3
9 11 12 12 11 11 12 12 12 11 11 10 8 7 7 6 5 4 3 3 3 3 3 3 2 2 3 3 3 3 2 2 3 4 4 4 3 4 4 4 4 3 4
8 9 9 10 9 9 9 10 11 11 11 10 9 8 7 6 5 4 4 3 3 3 2 1 1 2 2 2 3 3 3 2 3 3 3 3 3 3 4 4 4 3 3
7 7 8 8 9 9 9 8 9 9 9 10 9 8 7 6 5 4 4 3 3 3 1 1 1 1 1 2 3 3 3 2 3 3 2 2 2 2 2 2 2 2 2
6 6 7 8 9 9 9 8 8 8 8 9 8 8 7 6 5 5 4 3 2 1 1 1 0 1 1 3 5 4 4 3 2 2 2 2 0 1 1 2 2 2 2
5 4 5 6 6 8 9 8 7 8 8 8 7 8 7 7 6 5 4 4 3 2 2 2 1 1 2 3 4 5 4 3 2 2 2 3 1 1 1 1 2 1 2
3 3 3 4 4 5 8 8 8 8 8 8 7 7 6 6 5 5 4 3 3 3 2 2 2 2 2 2 3 6 4 2 1 2 2 2 2 2 3 2 1 1 1
3 2 2 3 4 3 5 7 8 8 8 7 6 6 6 6 5 4 4 3 3 3 3 2 2 2 2 2 3 4 3 1 0 0 2 2 2 3 4 2 2 2 1
3 3 2 3 4 3 5 6 7 6 6 6 5 5 5 5 4 4 3 3 2 3 3 2 2 2 2 2 2 4 3 2 1 1 2 4 2 2 4 2 2 2 2
3 4 4 3 4 4 4 5 5 5 5 5 5 4 4 4 4 3 3 2 2 2 2 1 2 2 3 3 2 3 2 3 3 1 1 2 2 2 3 3 2 3 3
4 4 4 5 5 5 4 5 4 4 5 5 5 4 4 3 4 4 3 2 1 2 2 2 2 2 3 3 1 1 2 4 3 3 2 1 0 1 3 2 2 4 4
4 5 6 6 6 6 6 5 4 4 4 5 5 4 3 3 3 3 3 2 2 2 1 1 1 1 2 2 1 1 2 3 2 2 3 1 1 2 2 2 2 3 2
5 5 6 6 6 6 5 5 5 4 4 4 4 4 4 3 3 1 2 1 1 1 0 0 0 1 2 2 1 0 1 1 1 1 1 2 2 2 2 1 2 2 2
5 5 5 5 6 5 5 5 4 4 3 3 3 3 4 4 3 4 3 2 3 1 1 1 1 1 1 2 2 1 1 2 2 2 1 1 1 1 1 1 1 1 1
5 4 4 5 5 5 5 4 4 3 3 2 2 2 2 3 4 5 4 8 5 6 7 6 3 3 3 2 2 3 3 3 4 2 2 1 1 1 1 1 1 1 1
Wind_Direction
174 168 170 168 166 164 166 171 180 176 181 187 187 192 201 207 204 207 189 191 206 200 199 237 168 200 208 212 215 202 206 220 231 244 252 248 236 212 207 207 211 203 206
172 170 174 175 173 170 171 173 180 181 188 190 190 193 199 215 208 208 184 199 206 204 207 204 209 197 201 221 230 221 222 231 221 214 230 252 254 247 227 203 209 216 202
174 173 178 179 177 174 178 184 182 182 186 186 189 192 176 202 225 205 196 208 211 217 224 200 212 208 209 209 215 222 220 229 241 226 214 225 237 258 257 227 217 206 201
173 173 179 181 181 178 178 175 176 181 179 183 195 197 191 200 207 199 204 212 218 223 221 214 210 217 234 212 219 221 226 230 241 244 236 238 223 225 270 258 238 220 214
172 173 177 178 180 177 174 173 170 175 176 184 192 194 206 206 198 185 198 208 216 221 224 218 205 209 231 231 235 233 230 232 237 241 244 246 240 227 229 253 253 246 233
167 167 170 169 173 172 169 168 166 172 175 187 194 194 204 203 203 197 194 207 216 214 219 222 202 206 223 231 234 237 238 241 246 251 249 241 234 234 227 239 244 239 239
167 165 167 168 169 170 168 164 163 171 179 187 194 197 200 205 209 212 208 213 224 203 197 216 195 218 229 228 228 236 243 243 245 245 250 250 246 247 238 235 250 258 255
169 165 167 167 166 170 169 164 164 171 179 186 188 190 196 211 201 206 224 223 232 220 195 204 206 225 234 241 230 241 241 240 243 249 245 247 249 251 241 227 234 259 261
165 163 167 167 167 172 169 165 161 168 176 181 178 184 190 199 198 198 208 218 222 235 210 215 219 229 235 246 247 246 251 249 245 251 248 243 248 246 244 230 213 216 244
161 163 164 165 166 169 165 161 160 166 172 175 180 182 182 186 193 213 211 213 236 257 252 244 242 243 240 235 240 253 248 245 251 253 259 257 258 258 258 246 232 218 229
167 160 162 163 165 167 166 164 160 164 171 175 176 164 169 181 187 193 205 207 225 236 246 253 258 259 255 250 244 255 260 257 260 265 264 264 261 261 272 267 250 240 235
157 154 161 166 169 170 167 166 166 170 172 170 168 167 169 175 185 185 188 197 209 224 230 240 254 265 269 271 266 272 274 268 270 268 264 268 263 249 257 265 257 247 239
150 153 161 166 169 169 167 168 171 175 173 169 169 168 175 179 182 181 182 195 209 228 241 241 245 273 293 288 282 280 276 274 275 272 265 265 264 259 259 261 264 263 262
152 156 155 157 160 161 161 166 175 173 171 168 170 171 177 176 179 177 180 190 202 224 238 257 270 278 300 325 322 311 287 279 279 287 289 286 269 264 263 259 262 266 268
156 157 152 152 157 159 161 167 171 167 166 164 169 170 173 176 177 174 176 178 189 211 211 235 287 311 351 354 334 308 295 292 290 297 297 296 324 338 313 291 296 287 277
160 160 154 157 164 166 169 170 170 163 157 164 169 166 171 171 172 172 171 177 179 177 165 185 141 36 1 13 8 346 318 307 304 309 309 271 71 21 348 317 295 269 262
151 156 160 164 167 172 170 172 169 161 162 168 170 169 171 171 173 176 173 176 172 171 164 163 148 108 51 25 6 349 316 309 321 320 309 304 340 57 345 293 287 317 283
137 143 164 159 168 177 172 169 166 163 168 173 175 170 170 167 165 167 171 171 173 179 166 175 176 144 85 36 357 333 298 295 329 348 341 348 25 2 347 314 305 328 355
90 100 140 152 149 159 158 155 163 165 168 169 170 168 166 165 164 170 175 175 182 180 176 169 170 147 113 58 8 343 299 274 251 53 29 22 53 5 349 328 329 335 354
64 74 74 87 115 116 136 148 156 156 161 159 157 149 147 151 160 172 179 176 180 182 190 170 159 142 124 96 38 349 311 310 279 165 119 75 56 10 353 320 309 292 299
70 77 75 72 87 98 117 140 146 149 144 134 135 141 148 158 160 158 164 170 183 183 190 161 142 124 116 122 71 7 340 334 323 315 127 98 69 37 345 320 310 294 290
79 88 84 77 80 82 98 115 125 127 129 131 133 141 147 159 148 147 157 160 166 183 190 183 175 143 126 107 116 341 324 327 325 333 18 64 7 302 306 314 319 307 297
74 81 90 85 81 80 87 97 102 110 121 124 129 130 129 119 130 156 158 164 174 210 214 201 204 141 121 114 118 222 280 313 325 359 21 15 249 278 249 248 295 304 294
74 77 92 94 87 83 87 96 92 93 112 129 134 138 141 135 112 96 96 98 56 337 320 51 360 99 97 77 58 5 250 261 253 283 257 223 238 269 308 290 255 254 289
87 84 93 101 97 92 91 90 94 104 108 118 137 159 154 142 128 98 57 74 69 51 356 15 29 29 86 42 28 25 20 3 1 335 298 251 222 245 257 256 266 281 268
85 90 94 103 104 100 93 89 95 108 119 137 151 174 157 145 145 128 98 53 69 67 58 50 54 72 90 115 69 49 37 19 13 2 307 327 340 335 330 337 359 356 350
Height
1529 1532 1534 1536 1538 1540 1541 1542 1544 1545 1547 1548 1550 1551 1553 1554 1556 1557 1558 1558 1560 1561 1562 1563 1563 1564 1565 1566 1567 1567 1568 1568 1569 1570 1570 1570 1570 1570 1571 1571 1572 1573 1573
1526 1530 1532 1535 1536 1538 1539 1541 1542 1543 1545 1547 1549 1550 1552 1553 1554 1555 1556 1557 1558 1559 1560 1561 1562 1562 1563 1564 1565 1565 1566 1567 1568 1568 1568 1568 1569 1568 1568 1568 1569 1570 1570
1522 1526 1530 1532 1535 1536 1537 1539 1540 1542 1543 1545 1547 1549 1550 1551 1552 1553 1554 1554 1555 1557 1558 1559 1560 1561 1561 1562 1563 1563 1564 1565 1565 1566 1567 1567 1566 1566 1566 1566 1566 1567 1567
1518 1523 1527 1530 1532 1534 1536 1537 1538 1540 1542 1543 1545 1547 1548 1549 1550 1551 1552 1552 1553 1554 1555 1556 1557 1558 1559 1560 1560 1561 1562 1562 1563 1563 1564 1564 1564 1564 1563 1563 1563 1564 1564
1514 1519 1523 1527 1530 1532 1534 1535 1537 1538 1540 1542 1543 1545 1546 1547 1548 1549 1549 1550 1551 1552 1553 1554 1555 1555 1556 1557 1558 1558 1559 1559 1559 1560 1560 1560 1561 1561 1561 1560 1560 1561 1560
1510 1515 1520 1524 1528 1530 1532 1533 1535 1536 1538 1540 1541 1543 1544 1545 1546 1547 1547 1548 1548 1549 1550 1551 1552 1553 1553 1554 1555 1555 1555 1556 1556 1556 1556 1557 1557 1557 1558 1557 1557 1557 1557
1507 1513 1517 1521 1525 1528 1530 1532 1533 1535 1536 1538 1540 1541 1543 1544 1545 1545 1546 1546 1547 1548 1548 1549 1550 1550 1551 1551 1552 1552 1552 1552 1552 1552 1552 1553 1553 1554 1554 1554 1554 1554 1553
1504 1509 1515 1519 1523 1526 1528 1530 1531 1533 1535 1537 1538 1540 1541 1542 1543 1544 1544 1545 1546 1546 1547 1547 1547 1547 1548 1548 1548 1549 1549 1549 1548 1548 1548 1549 1549 1550 1550 1550 1550 1550 1550
1502 1507 1512 1516 1520 1524 1526 1528 1530 1532 1534 1535 1537 1538 1539 1541 1542 1542 1543 1544 1544 1544 1545 1545 1545 1545 1545 1545 1545 1545 1545 1545 1545 1544 1544 1544 1544 1545 1546 1546 1546 1547 1546
1500 1505 1510 1514 1518 1522 1525 1527 1529 1530 1532 1534 1535 1537 1538 1539 1540 1541 1541 1542 1542 1543 1542 1542 1543 1542 1542 1542 1542 1541 1541 1541 1541 1541 1540 1540 1540 1541 1541 1542 1542 1542 1542
1499 1503 1507 1512 1516 1519 1523 1525 1527 1529 1531 1533 1534 1536 1536 1537 1538 1539 1540 1540 1540 1540 1540 1540 1540 1540 1539 1539 1539 1539 1538 1538 1537 1537 1537 1536 1537 1536 1537 1538 1538 1538 1538
1496 1500 1506 1510 1513 1517 1520 1523 1525 1527 1529 1531 1532 1534 1535 1536 1537 1537 1537 1537 1538 1538 1538 1538 1537 1537 1537 1536 1536 1536 1535 1535 1534 1534 1533 1533 1533 1533 1533 1533 1534 1534 1534
1495 1498 1503 1507 1511 1514 1518 1520 1523 1525 1527 1529 1530 1532 1533 1534 1535 1536 1536 1536 1536 1536 1536 1536 1535 1535 1535 1534 1533 1533 1532 1531 1531 1531 1530 1530 1529 1529 1530 1530 1530 1530 1530
1494 1498 1501 1505 1508 1512 1515 1518 1521 1523 1525 1527 1528 1529 1531 1532 1533 1534 1534 1534 1534 1535 1534 1534 1533 1533 1532 1531 1531 1530 1530 1529 1528 1528 1527 1527 1526 1526 1526 1526 1526 1526 1526
1493 1496 1500 1503 1506 1509 1512 1515 1518 1521 1522 1524 1526 1527 1529 1530 1531 1531 1532 1532 1532 1532 1532 1532 1531 1531 1530 1529 1529 1528 1527 1527 1526 1525 1524 1524 1523 1523 1523 1523 1522 1522 1522
1492 1495 1498 1501 1504 1506 1509 1512 1515 1517 1520 1521 1523 1525 1526 1528 1528 1529 1529 1530 1530 1530 1530 1530 1529 1529 1528 1528 1527 1526 1525 1525 1524 1523 1522 1521 1521 1520 1520 1519 1519 1519 1519
1491 1494 1496 1499 1502 1504 1506 1509 1512 1514 1516 1519 1521 1522 1523 1525 1525 1526 1527 1527 1527 1527 1527 1527 1527 1526 1526 1526 1525 1524 1523 1522 1521 1520 1520 1519 1518 1517 1517 1516 1516 1516 1515
1490 1492 1495 1497 1500 1502 1504 1506 1509 1511 1513 1515 1517 1519 1521 1521 1523 1524 1524 1525 1525 1525 1524 1525 1524 1524 1523 1523 1522 1521 1520 1519 1519 1518 1517 1516 1515 1514 1514 1513 1513 1512 1512
1489 1491 1493 1495 1497 1499 1501 1503 1505 1508 1510 1512 1514 1516 1517 1519 1520 1521 1522 1522 1522 1522 1522 1522 1522 1521 1521 1520 1520 1519 1518 1517 1516 1515 1515 1514 1513 1512 1512 1511 1510 1509 1509
1488 1490 1492 1493 1495 1497 1498 1500 1503 1505 1507 1509 1511 1513 1514 1515 1516 1517 1518 1519 1520 1520 1520 1519 1519 1519 1518 1518 1517 1516 1515 1514 1514 1513 1512 1511 1511 1510 1509 1509 1508 1507 1506
1488 1489 1490 1492 1493 1495 1497 1499 1501 1503 1505 1506 1508 1510 1511 1512 1513 1514 1516 1516 1517 1517 1517 1517 1517 1516 1516 1515 1515 1514 1513 1512 1512 1511 1510 1509 1508 1508 1507 1506 1505 1504 1504
1487 1488 1490 1491 1492 1494 1496 1497 1499 1501 1503 1504 1507 1508 1509 1510 1511 1511 1512 1514 1514 1515 1515 1515 1514 1514 1513 1513 1512 1511 1511 1510 1510 1509 1508 1507 1506 1506 1505 1504 1503 1502 1502
1487 1488 1489 1490 1491 1493 1494 1496 1498 1499 1501 1503 1504 1506 1508 1508 1509 1510 1510 1512 1512 1513 1512 1512 1512 1511 1511 1510 1509 1509 1508 1507 1507 1506 1506 1505 1504 1503 1502 1501 1501 1500 1499
1487 1488 1488 1489 1490 1492 1493 1495 1497 1498 1499 1502 1504 1505 1506 1507 1508 1509 1509 1510 1510 1510 1510 1510 1510 1509 1508 1507 1506 1506 1505 1504 1504 1503 1503 1502 1501 1501 1500 1499 1498 1498 1497
1487 1488 1488 1489 1490 1492 1493 1494 1496 1497 1498 1500 1502 1503 1504 1505 1506 1507 1507 1508 1508 1508 1509 1508 1508 1507 1506 1505 1504 1504 1503 1502 1501 1501 1500 1499 1499 1498 1498 1497 1497 1496 1495
1487 1488 1489 1489 1490 1492 1492 1493 1495 1496 1497 1498 1500 1502 1503 1503 1504 1504 1505 1505 1505 1505 1506 1506 1506 1505 1504 1503 1503 1502 1501 1500 1500 1499 1498 1498 1497 1497 1496 1496 1495 1494 1493